TimeEST,TemperatureF,Dew PointF,Humidity,Sea Level PressureIn,VisibilityMPH,Wind Direction,Wind SpeedMPH,Gust SpeedMPH,PrecipitationIn,Events,Conditions,WindDirDegrees,DateUTC
12:12 AM,57.2,50.0,77,29.97,10.0,South,3.5,-,N/A,,Clear,170,2011-11-09 05:12:00
12:32 AM,57.2,50.0,77,29.97,10.0,Calm,Calm,-,N/A,,Clear,0,2011-11-09 05:32:00
12:53 AM,55.4,50.0,82,29.97,10.0,South,3.5,-,N/A,,Scattered Clouds,170,2011-11-09 05:53:00
1:13 AM,57.2,51.8,82,29.96,10.0,SSE,4.6,-,N/A,,Mostly Cloudy,160,2011-11-09 06:13:00
1:33 AM,57.2,50.0,77,29.95,10.0,SSE,4.6,-,N/A,,Scattered Clouds,160,2011-11-09 06:33:00
2:13 AM,57.2,51.8,82,29.95,10.0,SSE,5.8,-,N/A,,Mostly Cloudy,150,2011-11-09 07:13:00
2:33 AM,57.2,51.8,82,29.95,10.0,SSE,4.6,-,N/A,,Overcast,160,2011-11-09 07:33:00
2:54 AM,57.2,51.8,82,29.94,10.0,SSE,5.8,-,N/A,,Overcast,150,2011-11-09 07:54:00
3:14 AM,57.2,51.8,82,29.94,10.0,SSE,3.5,-,N/A,,Overcast,160,2011-11-09 08:14:00
3:35 AM,57.2,51.8,82,29.93,10.0,SSE,5.8,-,N/A,,Mostly Cloudy,150,2011-11-09 08:35:00
3:55 AM,57.2,51.8,82,29.93,10.0,SSE,4.6,-,N/A,,Overcast,160,2011-11-09 08:55:00
4:15 AM,57.2,51.8,82,29.91,10.0,SSE,4.6,-,N/A,,Overcast,150,2011-11-09 09:15:00
4:35 AM,57.2,51.8,82,29.90,10.0,SE,5.8,-,N/A,,Overcast,140,2011-11-09 09:35:00
4:55 AM,57.2,51.8,82,29.89,10.0,SSE,8.1,-,N/A,,Scattered Clouds,150,2011-11-09 09:55:00
5:10 AM,57.2,50.0,77,29.88,10.0,SSE,9.2,-,N/A,,Scattered Clouds,160,2011-11-09 10:10:00
5:31 AM,57.2,50.0,77,29.89,10.0,SSE,9.2,-,N/A,,Mostly Cloudy,160,2011-11-09 10:31:00
5:51 AM,57.2,51.8,82,29.89,10.0,South,5.8,-,N/A,,Light Drizzle,170,2011-11-09 10:51:00
6:11 AM,57.2,51.8,82,29.89,10.0,South,5.8,-,N/A,,Drizzle,170,2011-11-09 11:11:00
6:31 AM,57.2,51.8,82,29.88,10.0,South,3.5,-,N/A,Rain,Rain,180,2011-11-09 11:31:00
6:51 AM,55.4,51.8,88,29.87,10.0,Calm,Calm,-,N/A,,Overcast,0,2011-11-09 11:51:00
7:11 AM,55.4,51.8,88,29.87,10.0,SE,3.5,-,N/A,,Overcast,130,2011-11-09 12:11:00
7:31 AM,57.2,51.8,82,29.87,10.0,SSE,4.6,-,N/A,,Light Drizzle,150,2011-11-09 12:31:00
7:52 AM,57.2,51.8,82,29.85,10.0,SE,5.8,-,N/A,,Light Drizzle,130,2011-11-09 12:52:00
8:12 AM,57.2,51.8,82,29.84,10.0,SE,6.9,-,N/A,,Overcast,140,2011-11-09 13:12:00
8:32 AM,57.2,51.8,82,29.83,10.0,SSE,9.2,-,N/A,,Overcast,150,2011-11-09 13:32:00
9:12 AM,57.2,51.8,82,29.82,10.0,SSE,11.5,-,N/A,Rain,Light Rain,160,2011-11-09 14:12:00
9:32 AM,55.4,53.6,94,29.81,10.0,SSE,10.4,-,N/A,Rain,Light Rain,150,2011-11-09 14:32:00
9:53 AM,55.4,53.6,94,29.79,10.0,SSE,12.7,16.1,N/A,Rain,Rain,150,2011-11-09 14:53:00
10:13 AM,55.4,55.4,100,29.76,7.0,SSE,11.5,17.3,N/A,Rain,Light Rain,150,2011-11-09 15:13:00
10:33 AM,55.4,55.4,100,29.76,10.0,SSE,15.0,18.4,N/A,Rain,Light Rain,150,2011-11-09 15:33:00
10:53 AM,55.4,55.4,100,29.77,7.0,South,18.4,23.0,N/A,Rain,Light Rain,170,2011-11-09 15:53:00
11:13 AM,55.4,55.4,100,29.76,4.0,South,12.7,-,N/A,Rain,Rain,170,2011-11-09 16:13:00
11:33 AM,55.4,55.4,100,29.74,7.0,South,15.0,21.9,N/A,Rain,Light Rain,170,2011-11-09 16:33:00
11:53 AM,55.4,55.4,100,29.73,7.0,South,15.0,20.7,N/A,Rain,Light Rain,170,2011-11-09 16:53:00
12:14 PM,57.2,57.2,100,29.71,10.0,South,18.4,25.3,N/A,Rain,Light Rain,170,2011-11-09 17:14:00
12:34 PM,57.2,57.2,100,29.70,10.0,South,18.4,26.5,N/A,,Overcast,180,2011-11-09 17:34:00
12:54 PM,60.8,60.8,100,29.68,10.0,South,18.4,26.5,N/A,,Overcast,190,2011-11-09 17:54:00
1:14 PM,60.8,60.8,100,29.66,10.0,South,20.7,28.8,N/A,,Mostly Cloudy,180,2011-11-09 18:14:00
1:34 PM,60.8,60.8,100,29.65,10.0,South,15.0,19.6,N/A,,Overcast,170,2011-11-09 18:34:00
1:54 PM,60.8,60.8,100,29.65,10.0,South,17.3,23.0,N/A,,Overcast,180,2011-11-09 18:54:00
2:14 PM,62.6,59.0,88,29.63,10.0,South,16.1,26.5,N/A,,Mostly Cloudy,180,2011-11-09 19:14:00
2:34 PM,62.6,59.0,88,29.63,10.0,South,20.7,27.6,N/A,,Overcast,180,2011-11-09 19:34:00
2:55 PM,62.6,57.2,82,29.61,10.0,South,15.0,27.6,N/A,,Overcast,180,2011-11-09 19:55:00
3:15 PM,62.6,57.2,82,29.60,10.0,South,17.3,24.2,N/A,,Mostly Cloudy,180,2011-11-09 20:15:00
3:35 PM,64.4,55.4,73,29.59,10.0,South,17.3,25.3,N/A,,Mostly Cloudy,190,2011-11-09 20:35:00
3:55 PM,62.6,55.4,77,29.58,10.0,South,21.9,27.6,N/A,,Overcast,170,2011-11-09 20:55:00
4:15 PM,62.6,53.6,72,29.61,10.0,SW,24.2,35.7,N/A,,Overcast,230,2011-11-09 21:15:00
4:30 PM,62.6,51.8,68,29.62,10.0,SW,18.4,26.5,N/A,,Overcast,230,2011-11-09 21:30:00
4:51 PM,60.8,46.4,59,29.63,10.0,SW,25.3,35.7,N/A,,Mostly Cloudy,220,2011-11-09 21:51:00
5:11 PM,57.2,46.4,67,29.65,10.0,WSW,26.5,36.8,N/A,,Scattered Clouds,240,2011-11-09 22:11:00
5:31 PM,55.4,46.4,72,29.67,10.0,WSW,28.8,36.8,N/A,,Mostly Cloudy,240,2011-11-09 22:31:00
5:51 PM,53.6,44.6,72,29.68,10.0,SW,24.2,39.1,N/A,,Overcast,230,2011-11-09 22:51:00
6:11 PM,51.8,41.0,67,29.71,10.0,SW,32.2,43.7,N/A,,Mostly Cloudy,230,2011-11-09 23:11:00
6:52 PM,46.4,37.4,71,29.74,10.0,SW,31.1,40.3,N/A,,Scattered Clouds,230,2011-11-09 23:52:00
7:12 PM,46.4,37.4,71,29.74,10.0,SW,25.3,38.0,N/A,,Mostly Cloudy,230,2011-11-10 00:12:00
7:32 PM,46.4,37.4,71,29.75,10.0,WSW,24.2,40.3,N/A,,Overcast,240,2011-11-10 00:32:00
7:52 PM,44.6,37.4,76,29.76,10.0,WSW,23.0,40.3,N/A,,Drizzle,240,2011-11-10 00:52:00
8:13 PM,44.6,35.6,71,29.76,10.0,WSW,29.9,38.0,N/A,,Mostly Cloudy,240,2011-11-10 01:13:00
8:33 PM,44.6,35.6,71,29.77,10.0,WSW,24.2,33.4,N/A,,Mostly Cloudy,240,2011-11-10 01:33:00
9:13 PM,42.8,35.6,76,29.80,10.0,WSW,25.3,33.4,N/A,,Overcast,240,2011-11-10 02:13:00
9:33 PM,42.8,35.6,76,29.81,10.0,WSW,21.9,32.2,N/A,,Overcast,240,2011-11-10 02:33:00
9:54 PM,42.8,37.4,81,29.82,10.0,WSW,21.9,31.1,N/A,,Overcast,250,2011-11-10 02:54:00
10:14 PM,42.8,37.4,81,29.83,10.0,WSW,19.6,23.0,N/A,,Overcast,250,2011-11-10 03:14:00
10:34 PM,42.8,35.6,76,29.84,10.0,WSW,17.3,26.5,N/A,,Overcast,250,2011-11-10 03:34:00
10:54 PM,42.8,37.4,81,29.85,10.0,WSW,16.1,23.0,N/A,,Overcast,240,2011-11-10 03:54:00
11:14 PM,42.8,35.6,76,29.86,10.0,WSW,15.0,24.2,N/A,,Overcast,250,2011-11-10 04:14:00
11:34 PM,42.8,35.6,76,29.87,10.0,WSW,13.8,25.3,N/A,,Overcast,250,2011-11-10 04:34:00
11:55 PM,42.8,35.6,76,29.88,10.0,WSW,13.8,21.9,N/A,,Mostly Cloudy,250,2011-11-10 04:55:00